GW6995 Weather Reports


time (UTC)temp
C
wind
direction
speed
KPH
gust
KPH
rain 1hr
cm
rain 24hr
cm
rain mn
cm
humidity
%
barometer
mb
20260505210702 29 192 4.8 12.9 0.00 0.00 0.00 27 1007.6
20260505210159 29 276 4.8 14.5 0.00 0.00 0.00 27 1007.4
20260505205656 29 255 12.9 22.5 0.00 0.00 0.00 24 1007.6
20260505205154 29 188 6.4 9.7 0.00 0.00 0.00 28 1007.4
20260505204650 29 144 6.4 24.1 0.00 0.00 0.00 26 1007.7
20260505204148 29 182 3.2 16.1 0.00 0.00 0.00 27 1007.5
20260505203645 29 275 9.7 12.9 0.00 0.00 0.00 26 1007.8
20260505203143 30 123 16.1 24.1 0.00 0.00 0.00 26 1007.6
20260505202638 28 210 3.2 4.8 0.00 0.00 0.00 29 1007.6
20260505202134 29 220 14.5 22.5 0.00 0.00 0.00 25 1007.6
20260505201630 29 307 12.9 17.7 0.00 0.00 0.00 26 1007.4
20260505201129 29 182 9.7 16.1 0.00 0.00 0.00 26 1007.6
20260505200627 29 36 6.4 12.9 0.00 0.00 0.00 25 1007.8
20260505200124 30 142 12.9 22.5 0.00 0.00 0.00 25 1007.6
20260505195620 30 232 4.8 11.3 0.00 0.00 0.00 25 1008.0
20260505195117 29 278 4.8 9.7 0.00 0.00 0.00 26 1008.0
20260505194614 29 163 6.4 16.1 0.00 0.00 0.00 26 1007.9
20260505194109 30 248 3.2 14.5 0.00 0.00 0.00 29 1008.1
20260505193607 30 109 4.8 12.9 0.00 0.00 0.00 28 1008.2
20260505193103 29 230 11.3 24.1 0.00 0.00 0.00 25 1008.4
20260505192602 29 315 9.7 16.1 0.00 0.00 0.00 25 1008.3
20260505192059 30 113 12.9 22.5 0.00 0.00 0.00 26 1008.7
20260505191557 30 206 6.4 14.5 0.00 0.00 0.00 27 1008.3
20260505191055 30 115 3.2 14.5 0.00 0.00 0.00 29 1008.4
20260505190549 30 294 8.0 20.9 0.00 0.00 0.00 27 1008.6
20260505190046 29 87 6.4 17.7 0.00 0.00 0.00 32 1008.4
20260505185543 29 86 11.3 22.5 0.00 0.00 0.00 31 1008.7
20260505185039 29 163 8.0 14.5 0.00 0.00 0.00 31 1008.9
20260505184536 29 115 11.3 14.5 0.00 0.00 0.00 29 1009.0
20260505184033 29 213 1.6 11.3 0.00 0.00 0.00 32 1009.0
20260505183529 29 349 6.4 16.1 0.00 0.00 0.00 30 1009.0
20260505183027 29 97 4.8 12.9 0.00 0.00 0.00 31 1009.0
20260505182523 28 198 6.4 16.1 0.00 0.00 0.00 30 1009.0
20260505182020 28 154 11.3 20.9 0.00 0.00 0.00 31 1009.2
20260505181516 29 80 9.7 24.1 0.00 0.00 0.00 29 1009.2
20260505181014 29 217 8.0 11.3 0.00 0.00 0.00 34 1009.0
20260505180509 29 193 6.4 12.9 0.00 0.00 0.00 35 1009.1
20260505180008 28 203 4.8 11.3 0.00 0.00 0.00 36 1009.1
20260505175502 29 270 8.0 11.3 0.00 0.00 0.00 33 1009.4
20260505175000 28 138 1.6 12.9 0.00 0.00 0.00 38 1009.1
20260505174457 28 206 8.0 11.3 0.00 0.00 0.00 37 1009.1
20260505173953 28 154 4.8 6.4 0.00 0.00 0.00 37 1009.3
20260505173449 28 243 4.8 9.7 0.00 0.00 0.00 38 1009.2
20260505172946 28 86 9.7 16.1 0.00 0.00 0.00 35 1009.4
20260505172445 28 73 1.6 9.7 0.00 0.00 0.00 41 1009.5
20260505171944 27 153 3.2 9.7 0.00 0.00 0.00 41 1009.5
20260505171441 27 229 6.4 14.5 0.00 0.00 0.00 38 1009.5
20260505170937 27 318 9.7 16.1 0.00 0.00 0.00 39 1009.6
20260505170434 27 110 1.6 3.2 0.00 0.00 0.00 44 1009.6
20260505165930 27 117 6.4 12.9 0.00 0.00 0.00 38 1009.7
20260505165426 27 270 3.2 6.4 0.00 0.00 0.00 36 1009.8
20260505164921 27 300 4.8 12.9 0.00 0.00 0.00 41 1010.0
20260505164418 27 201 6.4 12.9 0.00 0.00 0.00 39 1010.0
20260505163916 27 240 9.7 16.1 0.00 0.00 0.00 39 1010.0
20260505163415 27 93 3.2 4.8 0.00 0.00 0.00 41 1009.9
20260505162913 27 138 4.8 4.8 0.00 0.00 0.00 38 1010.2
20260505162409 27 283 1.6 4.8 0.00 0.00 0.00 41 1010.4
20260505161906 27 190 8.0 11.3 0.00 0.00 0.00 38 1010.3
20260505161403 27 123 4.8 9.7 0.00 0.00 0.00 39 1010.4
20260505160900 26 190 3.2 9.7 0.00 0.00 0.00 42 1010.4
20260505160358 26 135 4.8 11.3 0.00 0.00 0.00 39 1010.6
20260505153337 25 84 3.2 6.4 0.00 0.00 0.00 42 1011.3
20260505152834 26 140 6.4 12.9 0.00 0.00 0.00 41 1010.9
20260505152332 26 203 3.2 3.2 0.00 0.00 0.00 43 1011.0
20260505151831 25 144 1.6 3.2 0.00 0.00 0.00 44 1011.2
20260505151328 25 8 3.2 12.9 0.00 0.00 0.00 41 1011.2
20260505150825 24 120 1.6 3.2 0.00 0.00 0.00 44 1011.3
20260505150322 25 171 1.6 4.8 0.00 0.00 0.00 45 1011.0
20260505140246 23 98 1.6 4.8 0.00 0.00 0.00 47 1011.6
20260505130210 21 143 1.6 3.2 0.00 0.00 0.00 52 1011.3
20260505124700 20 97 1.6 1.6 0.00 0.00 0.00 58 1011.3
20260505124157 19 119 3.2 4.8 0.00 0.00 0.00 57 1011.1
20260505123653 19 93 4.8 4.8 0.00 0.00 0.00 58 1011.4
20260505123150 18 196 3.2 4.8 0.00 0.00 0.00 59 1011.3
20260505122646 18 134 3.2 4.8 0.00 0.00 0.00 61 1011.4
20260505122144 18 121 3.2 4.8 0.00 0.00 0.00 62 1011.4
20260505121640 18 168 1.6 3.2 0.00 0.00 0.00 65 1011.5
20260505121137 17 136 0.0 6.4 0.00 0.00 0.00 70 1011.6
20260505120633 16 138 0.0 1.6 0.00 0.00 0.00 72 1011.5
20260505120129 15 104 1.6 3.2 0.00 0.00 0.00 72 1011.5
20260505115623 15 202 1.6 1.6 0.00 0.00 0.00 74 1011.6
20260505115121 15 178 1.6 3.2 0.00 0.00 0.00 74 1011.4
20260505114618 15 215 1.6 3.2 0.00 0.00 0.00 77 1011.5
20260505114114 14 274 3.2 3.2 0.00 0.00 0.00 77 1011.3
20260505113611 14 202 0.0 1.6 0.00 0.00 0.00 80 1011.7
20260505113108 14 203 0.0 1.6 0.00 0.00 0.00 81 1011.4
20260505112604 14 203 0.0 1.6 0.00 0.00 0.00 79 1011.5
20260505112102 15 207 0.0 3.2 0.00 0.00 0.00 77 1011.5
20260505111556 15 208 0.0 1.6 0.00 0.00 0.00 72 1011.5
20260505111052 15 185 0.0 0.0 0.00 0.00 0.00 71 1011.6
20260505110549 15 186 0.0 1.6 0.00 0.00 0.00 71 1011.9
20260505102021 12 192 0.0 0.0 0.00 0.00 0.00 77 1011.5
20260505101519 12 139 1.6 1.6 0.00 0.00 0.00 77 1011.4
20260505101015 12 131 0.0 1.6 0.00 0.00 0.00 78 1011.4
20260505100513 12 191 0.0 0.0 0.00 0.00 0.00 78 1011.2
20260505100010 12 191 0.0 0.0 0.00 0.00 0.00 77 1011.2
20260505095505 12 192 1.6 0.0 0.00 0.00 0.00 77 1011.0
20260505095001 12 193 0.0 0.0 0.00 0.00 0.00 77 1011.0
20260505094458 12 193 0.0 0.0 0.00 0.00 0.00 77 1010.9
20260505093955 12 193 0.0 1.6 0.00 0.00 0.00 76 1010.8
20260505093451 13 193 1.6 1.6 0.00 0.00 0.00 75 1010.7
20260505092949 12 194 0.0 1.6 0.00 0.00 0.00 75 1010.6
20260505092446 12 197 0.0 1.6 0.00 0.00 0.00 75 1010.8
20260505091944 12 177 3.2 4.8 0.00 0.00 0.00 77 1010.8
20260505091441 12 186 0.0 1.6 0.00 0.00 0.00 77 1010.6
20260505090939 12 186 0.0 0.0 0.00 0.00 0.00 77 1010.6
20260505090437 12 175 0.0 1.6 0.00 0.00 0.00 78 1010.7
20260505085934 12 175 0.0 1.6 0.00 0.00 0.00 78 1010.8
20260505085432 11 174 0.0 0.0 0.00 0.00 0.00 78 1010.7
20260505084930 11 174 0.0 1.6 0.00 0.00 0.00 79 1010.7
20260505084428 11 175 0.0 1.6 0.00 0.00 0.00 78 1010.5
20260505083925 11 174 0.0 0.0 0.00 0.00 0.00 78 1010.8
20260505083423 12 174 0.0 0.0 0.00 0.00 0.00 77 1010.6
20260505082919 12 174 0.0 0.0 0.00 0.00 0.00 76 1010.8
20260505082414 12 174 0.0 0.0 0.00 0.00 0.00 74 1010.5
20260505081912 12 174 0.0 0.0 0.00 0.00 0.00 73 1010.6
20260505081409 12 151 0.0 0.0 0.00 0.00 0.00 73 1010.7
20260505080905 13 145 0.0 0.0 0.00 0.00 0.00 73 1010.7
20260505080401 13 156 0.0 0.0 0.00 0.00 0.00 72 1010.6
20260505075857 13 136 0.0 1.6 0.00 0.00 0.00 72 1010.9
20260505075354 12 192 1.6 1.6 0.00 0.00 0.00 74 1010.8
20260505074851 12 186 0.0 1.6 0.00 0.00 0.00 74 1010.7
20260505074348 12 181 1.6 1.6 0.00 0.00 0.00 76 1010.9
20260505073846 11 180 1.6 1.6 0.00 0.00 0.00 78 1010.5
20260505073343 11 153 0.0 1.6 0.00 0.00 0.00 81 1010.9
20260505072840 11 149 0.0 1.6 0.00 0.00 0.00 81 1010.9
20260505072336 11 146 0.0 0.0 0.00 0.00 0.00 81 1010.6
20260505071832 11 146 0.0 0.0 0.00 0.00 0.00 81 1010.6
20260505071329 11 146 0.0 0.0 0.00 0.00 0.00 82 1010.8
20260505070827 11 146 0.0 0.0 0.00 0.00 0.00 80 1010.5
20260505070323 11 146 0.0 0.0 0.00 0.00 0.00 79 1010.4
20260505065818 11 146 0.0 0.0 0.00 0.00 0.00 79 1010.8
20260505065316 11 146 0.0 0.0 0.00 0.00 0.00 78 1010.6
20260505064813 11 146 0.0 0.0 0.00 0.00 0.00 77 1010.4
20260505064309 11 146 0.0 0.0 0.00 0.00 0.00 77 1010.7
20260505063808 11 146 0.0 0.0 0.00 0.00 0.00 76 1010.9
20260505063304 11 146 0.0 0.0 0.00 0.00 0.00 75 1010.5
20260505062800 12 146 0.0 0.0 0.00 0.00 0.00 74 1010.6
20260505062258 12 146 0.0 0.0 0.00 0.00 0.00 73 1010.6
20260505061754 12 146 0.0 0.0 0.00 0.00 0.00 73 1010.8
20260505061252 12 146 0.0 0.0 0.00 0.00 0.00 72 1010.7
20260505060750 12 146 0.0 0.0 0.00 0.00 0.00 72 1010.8
20260505060247 12 146 0.0 0.0 0.00 0.00 0.00 72 1010.7
20260505055742 12 147 0.0 1.6 0.00 0.00 0.00 73 1011.1
20260505055238 12 146 0.0 0.0 0.00 0.00 0.00 71 1010.7
20260505054736 12 146 0.0 0.0 0.00 0.00 0.00 70 1010.9
20260505054234 12 146 0.0 0.0 0.00 0.00 0.00 69 1010.9
20260505053732 13 146 0.0 0.0 0.00 0.00 0.00 68 1011.1
20260505053227 13 147 0.0 0.0 0.00 0.00 0.00 67 1011.0
20260505052725 13 147 0.0 0.0 0.00 0.00 0.00 67 1011.1
20260505052222 13 147 0.0 0.0 0.00 0.00 0.00 66 1011.2
20260505051719 13 147 0.0 0.0 0.00 0.00 0.00 65 1011.1
20260505051217 14 147 0.0 0.0 0.00 0.00 0.00 63 1011.1
20260505050715 14 147 0.0 0.0 0.00 0.00 0.00 62 1011.2
20260505050213 14 146 0.0 3.2 0.00 0.00 0.00 62 1011.2
20260505041642 15 194 0.0 1.6 0.00 0.00 0.00 56 1011.3
20260505041140 15 194 1.6 1.6 0.00 0.00 0.00 55 1011.2
20260505040636 15 195 1.6 3.2 0.00 0.00 0.00 55 1011.3
20260505040134 15 138 1.6 1.6 0.00 0.00 0.00 55 1011.2
20260505035630 15 193 0.0 4.8 0.00 0.00 0.00 56 1011.2
20260505035126 15 104 1.6 6.4 0.00 0.00 0.00 57 1011.4
20260505034623 15 188 0.0 3.2 0.00 0.00 0.00 57 1011.4
20260505034120 15 212 0.0 0.0 0.00 0.00 0.00 58 1011.3
20260505033617 15 212 0.0 0.0 0.00 0.00 0.00 56 1011.2
20260505033115 15 213 3.2 3.2 0.00 0.00 0.00 55 1011.2
20260505032613 15 165 0.0 1.6 0.00 0.00 0.00 55 1011.4
20260505032109 16 178 0.0 0.0 0.00 0.00 0.00 55 1011.2
20260505031606 16 178 0.0 0.0 0.00 0.00 0.00 52 1011.1
20260505031102 16 178 0.0 3.2 0.00 0.00 0.00 51 1011.5
20260505030600 16 208 0.0 1.6 0.00 0.00 0.00 51 1011.4
20260505030055 16 177 1.6 4.8 0.00 0.00 0.00 50 1011.4
20260505025551 16 119 3.2 4.8 0.00 0.00 0.00 50 1011.3
20260505025050 16 94 1.6 3.2 0.00 0.00 0.00 50 1011.3
20260505024547 16 200 1.6 4.8 0.00 0.00 0.00 50 1011.7
20260505024044 16 197 1.6 3.2 0.00 0.00 0.00 51 1011.4
20260505023541 17 219 1.6 1.6 0.00 0.00 0.00 50 1011.3
20260505023039 17 226 0.0 1.6 0.00 0.00 0.00 49 1011.6
20260505022536 17 213 1.6 3.2 0.00 0.00 0.00 49 1011.4
20260505022033 17 122 1.6 9.7 0.00 0.00 0.00 49 1011.7
20260505021530 17 207 1.6 3.2 0.00 0.00 0.00 49 1011.5
20260505021027 17 111 6.4 6.4 0.00 0.00 0.00 48 1011.6
20260505020526 17 199 3.2 4.8 0.00 0.00 0.00 49 1011.1
20260505020024 17 196 1.6 3.2 0.00 0.00 0.00 49 1011.3
20260505015521 17 143 3.2 4.8 0.00 0.00 0.00 49 1011.4
20260505015018 17 174 3.2 4.8 0.00 0.00 0.00 49 1011.5
20260505014514 17 216 1.6 4.8 0.00 0.00 0.00 50 1011.3
20260505014012 17 216 1.6 6.4 0.00 0.00 0.00 49 1011.2
20260505013509 18 187 4.8 4.8 0.00 0.00 0.00 48 1011.3
20260505013006 18 202 6.4 11.3 0.00 0.00 0.00 48 1011.3
20260505012504 18 136 0.0 4.8 0.00 0.00 0.00 48 1011.1
20260505012000 18 160 3.2 6.4 0.00 0.00 0.00 46 1011.1
20260505011456 18 155 1.6 3.2 0.00 0.00 0.00 44 1010.8
20260505010954 19 189 3.2 3.2 0.00 0.00 0.00 41 1011.0
20260505010449 19 139 1.6 4.8 0.00 0.00 0.00 37 1010.9
20260505005945 19 210 1.6 3.2 0.00 0.00 0.00 36 1010.7
20260505005442 19 204 1.6 3.2 0.00 0.00 0.00 36 1010.7
20260505004940 19 115 1.6 4.8 0.00 0.00 0.00 36 1010.6
20260505004436 19 263 1.6 3.2 0.00 0.00 0.00 36 1010.6
20260505003933 20 185 3.2 4.8 0.00 0.00 0.00 35 1010.6
20260505003431 20 217 1.6 1.6 0.00 0.00 0.00 36 1010.3
20260505002927 20 242 1.6 6.4 0.00 0.00 0.00 36 1010.1
20260505002423 20 145 1.6 4.8 0.00 0.00 0.00 36 1010.2
20260505001922 20 153 3.2 3.2 0.00 0.00 0.00 35 1010.2
20260505001419 20 79 1.6 4.8 0.00 0.00 0.00 35 1010.3
20260505000916 20 253 4.8 6.4 0.00 0.00 0.00 34 1009.8
20260505000414 20 115 4.8 11.3 0.00 0.00 0.00 35 1009.8
20260504235910 20 174 1.6 6.4 0.00 0.00 0.00 35 1009.7
20260504235408 20 215 1.6 4.8 0.00 0.00 0.00 35 1009.7
20260504234903 20 195 3.2 3.2 0.00 0.00 0.00 34 1009.7
20260504234401 21 214 3.2 6.4 0.00 0.00 0.00 33 1009.6
20260504233857 21 3 1.6 9.7 0.00 0.00 0.00 34 1009.7
20260504233353 21 88 1.6 4.8 0.00 0.00 0.00 33 1009.4
20260504232850 21 140 3.2 4.8 0.00 0.00 0.00 33 1009.4
20260504232347 21 104 6.4 11.3 0.00 0.00 0.00 33 1009.4
20260504231844 21 233 0.0 1.6 0.00 0.00 0.00 33 1009.2
20260504231341 21 166 3.2 6.4 0.00 0.00 0.00 33 1009.1
20260504230837 21 196 3.2 6.4 0.00 0.00 0.00 33 1009.0
20260504230335 21 300 0.0 6.4 0.00 0.00 0.00 33 1009.1
20260504225833 21 234 1.6 4.8 0.00 0.00 0.00 33 1009.0
20260504225329 22 107 3.2 6.4 0.00 0.00 0.00 31 1009.0
20260504224827 22 129 6.4 11.3 0.00 0.00 0.00 31 1009.0
20260504224323 22 155 6.4 9.7 0.00 0.00 0.00 30 1009.0
20260504223820 22 190 1.6 4.8 0.00 0.00 0.00 32 1009.2
20260504223316 22 160 1.6 3.2 0.00 0.00 0.00 33 1009.0
20260504222813 22 198 3.2 3.2 0.00 0.00 0.00 31 1009.2
20260504222309 22 200 3.2 9.7 0.00 0.00 0.00 31 1008.9
20260504221808 22 238 3.2 4.8 0.00 0.00 0.00 31 1009.0
20260504221304 23 238 8.0 14.5 0.00 0.00 0.00 29 1009.2
20260504220801 23 191 3.2 11.3 0.00 0.00 0.00 31 1009.2
20260504220258 23 133 8.0 14.5 0.00 0.00 0.00 29 1009.3
20260504215755 23 202 1.6 6.4 0.00 0.00 0.00 29 1009.2
20260504215251 23 308 4.8 6.4 0.00 0.00 0.00 28 1009.5
20260504214747 23 140 4.8 9.7 0.00 0.00 0.00 28 1009.5
20260504214244 23 281 3.2 9.7 0.00 0.00 0.00 29 1009.6
20260504213741 23 218 1.6 4.8 0.00 0.00 0.00 31 1009.2
20260504213237 23 211 3.2 3.2 0.00 0.00 0.00 31 1009.4
20260504212734 23 246 4.8 12.9 0.00 0.00 0.00 30 1009.5
20260504212231 23 103 1.6 3.2 0.00 0.00 0.00 31 1009.6
20260504211729 24 120 3.2 6.4 0.00 0.00 0.00 30 1009.6
20260504211224 24 200 6.4 6.4 0.00 0.00 0.00 30 1009.7